This demonstration page uses our WeatherBlox Daily Observations layout. Learn more.

Left ArrowRight Arrow

39.12711, -84.51439

Hourly Observations for June 3, 2018

Temp ( °F °C ) Dew Point ( °F °C ) Humidity (%) Winds ( mph kmh ) Pressure ( in mb ) Visibility ( mi km ) Precip ( " mm )
12:53 am 00:53 Mostly Clear 70 21.1 69 20.6 97 97 N N/A 29.85 1011 7 11 N/A
1:31 am 01:31 Clear with Mist and Fog 68 20 68 20 100 100 N N/A 29.85 1011 2 2 N/A
1:41 am 01:41 Clear with Mist and Fog 68 20 68 20 100 100 N N/A 29.85 1011 3 5 N/A
1:53 am 01:53 Clear with Mist and Fog 69 20.6 69 20.6 100 100 N N/A 29.83 1010 6 10 N/A
2:25 am 02:25 Clear with Mist and Fog 67 19.4 67 19.4 100 100 N N/A 29.85 1011 2 2 N/A
2:34 am 02:34 Clear with Fog 66 18.9 66 18.9 100 100 S 3 6 29.85 1011 1 1 N/A
2:41 am 02:41 Clear with Mist and Fog 66 18.9 66 18.9 100 100 SSE 3 6 29.85 1011 2 3 N/A
2:49 am 02:49 Clear with Mist and Fog 66 19 66 19 100 100 N N/A 29.85 1011 5 8 N/A
2:53 am 02:53 Clear with Mist and Fog 67 19.4 67 19.4 100 100 N N/A 29.84 1010 5 8 N/A
3:53 am 03:53 Clear with Mist and Fog 67 19.4 67 19.4 100 100 N N/A 29.81 1010 4 6 N/A
4:22 am 04:22 Partly Cloudy with Mist and Fog 67 19.4 67 19.4 100 100 N N/A 29.83 1010 4 6 N/A
4:28 am 04:28 Partly Cloudy with Mist and Fog 67 19.4 67 19.4 100 100 N N/A 29.83 1010 2 3 N/A
4:39 am 04:39 Mostly Clear with Mist and Fog 67 19.4 67 19.4 100 100 N N/A 29.83 1010 3 5 N/A
4:51 am 04:51 Mostly Cloudy with Mist and Fog 66 19 66 19 100 100 N N/A 29.83 1010 5 8 N/A
4:53 am 04:53 Mostly Cloudy with Mist and Fog 67 19.4 67 19.4 100 100 N N/A 29.81 1009 4 6 N/A
5:00 am 05:00 Partly Cloudy with Mist and Fog 67 19.4 67 19.4 100 100 N N/A 29.83 1010 3 4 N/A
5:07 am 05:07 Mostly Cloudy with Mist and Fog 67 19.4 67 19.4 100 100 N N/A 29.80 1009 1 2 N/A
5:24 am 05:24 Mostly Cloudy with Fog 67 19.4 67 19.4 100 100 N N/A 29.80 1009 0 0 N/A
5:53 am 05:53 Mostly Cloudy with Fog 67 19.4 67 19.4 100 100 N N/A 29.80 1009 0 0 N/A
6:43 am 06:43 Cloudy with Fog 68 20 68 20 100 100 WSW 3 6 29.83 1010 1 1 N/A
6:49 am 06:49 Cloudy with Mist and Fog 68 20 68 20 100 100 WSW 3 6 29.83 1010 2 3 N/A
6:53 am 06:53 Cloudy with Mist and Fog 68 20 68 20 100 100 SSW 5 7 29.81 1010 2 3 N/A
7:53 am 07:53 Partly Cloudy with Mist and Fog 70 21.1 70 21.1 100 100 SW 6 9 29.81 1010 3 5 N/A
8:53 am 08:53 Mostly Cloudy with Mist and Fog 72 22.2 71 21.7 97 97 N N/A 29.83 1010 6 10 N/A
9:53 am 09:53 Mostly Cloudy 77 25 72 22.2 85 85 W 10 17 29.83 1010 10 16 N/A
10:53 am 10:53 Mostly Cloudy 79 26.1 70 21.1 74 74 W 10 17 29.84 1010 10 16 N/A
11:53 am 11:53 Mostly Cloudy 82 27.8 71 21.7 69 69 WNW 8 13 29.84 1011 10 16 N/A
12:53 pm 12:53 Mostly Cloudy 79 26.1 66 18.9 65 65 WNW 10 17 29.85 1011 10 16 N/A
1:53 pm 13:53 Partly Cloudy 82 27.8 66 18.9 58 58 W 10 17 29.85 1011 10 16 N/A
2:53 pm 14:53 Mostly Sunny 81 27.2 60 15.6 49 49 WNW 13 20 29.85 1011 10 16 N/A
3:53 pm 15:53 Mostly Sunny 81 27.2 55 12.8 41 41 W 15 24 29.85 1011 10 16 N/A
4:53 pm 16:53 Sunny 82 27.8 54 12.2 38 38 W 17 28 29.84 1011 10 16 N/A
5:53 pm 17:53 Sunny 80 26.7 53 11.7 39 39 W 16 26 29.85 1011 10 16 N/A
6:53 pm 18:53 Sunny 79 26.1 52 11.1 39 39 WNW 18 30 29.86 1011 10 16 N/A
7:53 pm 19:53 Sunny 78 25.6 49 9.4 36 36 W 14 22 29.87 1012 10 16 N/A
8:53 pm 20:53 Sunny 74 23.3 50 10 43 43 W 7 11 29.88 1012 10 16 N/A
9:53 pm 21:53 Clear 67 19.4 54 12.2 63 63 SSW 8 13 29.89 1012 10 16 N/A
10:53 pm 22:53 Clear 66 18.9 54 12.2 65 65 SSW 5 7 29.89 1012 10 16 N/A
11:53 pm 23:53 Clear 67 19.4 53 11.7 61 61 N N/A 29.90 1013 10 16 N/A

Powered by AerisWeather